Home > Weather > Cancún > Past weeks

Flag for Mexico Past Weather in Cancún, Quintana Roo, Mexico — Yesterday and Last 2 Weeks

Now
86 °F

Passing clouds.


Feels Like: 92 °F
Forecast: N/A
Wind: 12 mph from East

Location: Cozumel Civ / Mil

Current Time: May 26, 2016 at 5:33:44 PM

Latest Report: May 26, 2016 at 4:47 PM


Visibility: 8 mi

Pressure: 29.91 "Hg

Humidity: 62%

Dew Point: 72 °F

Location of CancúnLocation

Past Weather in Cancún — Graph

°F

Cancún Temperature Yesterday

Maximum temperature yesterday: 88 °F (at 11:50 AM)
Minimum temperature yesterday: 73 °F (at 3:40 AM)
Average temperature yesterday: 81 °F

High & Low Weather Summary for the Past Weeks

 TemperatureHumidityPressure
High90 °F (May 22, 1:42 PM)100% (May 12, 1:42 AM)30.07 "Hg (May 12, 1:42 AM)
Low66 °F (May 16, 5:59 AM)59% (May 22, 1:42 PM)29.84 "Hg (May 23, 4:41 AM)
Average79 °F86%29.97 "Hg
* Reported May 11 3:51 PM — May 26 3:50 PM, Cancún, Weather by CustomWeather, © 2016

Note: Actual official high and low records may vary slightly from our data, if they occured in-between our weather recording intervals... More about our weather records

Advertising

Cancún Weather History for the Previous 24 Hours

Scroll right to see more
 ConditionsComfort  
Time TempWeatherWind HumidityBarometerVisibility
3:50 PM
Thu, May 26
86 °FScattered clouds.10 mph70%29.96 "Hg8 mi
2:52 PM82 °FPartly sunny.5 mph79%29.95 "Hg8 mi
12:40 PM84 °FPartly sunny.17 mph74%29.97 "Hg8 mi
9:41 AM82 °FPartly sunny.9 mph74%30.03 "Hg8 mi
8:40 AM82 °FScattered clouds.14 mph79%30.00 "Hg8 mi
6:42 AM72 °FPassing clouds.No wind100%29.97 "Hg8 mi
5:41 AM72 °FPassing clouds.No wind100%29.98 "Hg7 mi
4:49 AM72 °FPassing clouds.No wind100%29.98 "Hg7 mi
2:58 AM73 °FPassing clouds.3 mph100%29.99 "Hg7 mi
2:08 AM75 °FPassing clouds.No wind100%30.00 "Hg7 mi
12:48 AM75 °FPassing clouds.3 mph100%29.99 "Hg7 mi
11:44 PM
Wed, May 25
77 °FPassing clouds.3 mph94%30.02 "Hg7 mi
9:46 PM77 °FPassing clouds.5 mph94%30.06 "Hg7 mi
7:46 PM79 °FPassing clouds.7 mph94%30.00 "Hg7 mi
6:49 PM82 °FPassing clouds.10 mph79%29.96 "Hg8 mi
5:50 PM84 °FScattered clouds.9 mph79%29.99 "Hg8 mi
Weather by CustomWeather, © 2016

See weather overviewHow to use our weather pages